• In Hungary
  • List of Countries
  • For 7 days
  • Water Temperature
  • Satellite Maps
  • Weather Map
  • News
  • Weather Widgets
  • user-avatar
    Login

    Hourly Weather Bruchsal

    Today, 26 May, Saturday

    Time Temperature Precipitation Wind Pressure Humidity
    00:00 +19°C° 0 mm 1 mps 753 mmHg 85%
    01:00 +19°C° 0 mm 1 mps 753 mmHg 86%
    02:00 +18°C° 0 mm 1 mps 753 mmHg 87%
    03:00 +18°C° 0 mm 1 mps 753 mmHg 88%
    04:00 +18°C° 0 mm 1 mps 753 mmHg 89%
    05:00 +19°C° 0 mm 1 mps 753 mmHg 86%
    06:00 +20°C° 0 mm 1 mps 753 mmHg 84%
    07:00 +21°C° 0 mm 1 mps 753 mmHg 81%
    08:00 +21°C° 0 mm 2 mps 753 mmHg 75%
    09:00 +24°C° 0 mm 2 mps 753 mmHg 68%
    10:00 +26°C° 0 mm 2 mps 754 mmHg 62%
    11:00 +27°C° 0 mm 2 mps 753 mmHg 57%
    12:00 +28°C° 0 mm 2 mps 753 mmHg 53%
    13:00 +29°C° 0 mm 2 mps 753 mmHg 49%
    14:00 +29°C° 0 mm 2 mps 753 mmHg 49%
    15:00 +29°C° 0 mm 2 mps 753 mmHg 50%
    16:00 +29°C° 0 mm 2 mps 753 mmHg 50%
    17:00 +28°C° 0 mm 2 mps 753 mmHg 56%
    18:00 +27°C° 0 mm 2 mps 753 mmHg 63%
    19:00 +26°C° 0 mm 2 mps 753 mmHg 69%
    20:00 +24°C° 0 mm 2 mps 753 mmHg 72%
    21:00 +23°C° 0 mm 2 mps 753 mmHg 74%
    22:00 +22°C° 0 mm 1 mps 754 mmHg 77%
    23:00 +22°C° 0 mm 1 mps 753 mmHg 79%

    Tomorrow, 27 May, Sunday

    Time Temperature Precipitation Wind Pressure Humidity
    00:00 +21°C° 0 mm 1 mps 753 mmHg 80%
    01:00 +20°C° 0 mm 1 mps 753 mmHg 81%
    02:00 +20°C° 0 mm 1 mps 753 mmHg 82%
    03:00 +20°C° 0 mm 1 mps 753 mmHg 83%
    04:00 +19°C° 0 mm 1 mps 753 mmHg 84%
    05:00 +20°C° 0 mm 1 mps 753 mmHg 82%
    06:00 +21°C° 0 mm 1 mps 753 mmHg 80%
    07:00 +22°C° 0 mm 1 mps 753 mmHg 78%
    08:00 +24°C° 0.1 mm 1 mps 753 mmHg 72%
    09:00 +25°C° 0.1 mm 1 mps 753 mmHg 66%
    10:00 +27°C° 0.1 mm 2 mps 753 mmHg 60%
    11:00 +28°C° 0.1 mm 2 mps 753 mmHg 56%
    12:00 +29°C° 0.1 mm 2 mps 752 mmHg 53%
    13:00 +30°C° 0.1 mm 2 mps 752 mmHg 49%
    14:00 +30°C° 0 mm 2 mps 752 mmHg 48%
    15:00 +31°C° 0 mm 2 mps 751 mmHg 48%
    16:00 +31°C° 0 mm 1 mps 751 mmHg 48%
    17:00 +30°C° 0 mm 2 mps 751 mmHg 54%
    18:00 +28°C° 0 mm 2 mps 751 mmHg 60%
    19:00 +27°C° 0 mm 2 mps 750 mmHg 66%
    20:00 +26°C° 0 mm 2 mps 751 mmHg 70%
    21:00 +24°C° 0 mm 2 mps 751 mmHg 74%
    22:00 +23°C° 0 mm 1 mps 752 mmHg 78%
    23:00 +22°C° 0 mm 1 mps 752 mmHg 79%

    Day after tomorrow, 28 May, Monday

    Time Temperature Precipitation Wind Pressure Humidity
    00:00 +22°C° 0 mm 1 mps 751 mmHg 80%
    01:00 +21°C° 0 mm 1 mps 751 mmHg 82%
    02:00 +21°C° 0 mm 1 mps 751 mmHg 82%
    03:00 +20°C° 0 mm 1 mps 751 mmHg 83%
    04:00 +20°C° 0 mm 1 mps 751 mmHg 83%
    05:00 +21°C° 0 mm 1 mps 751 mmHg 81%
    06:00 +22°C° 0 mm 1 mps 751 mmHg 79%
    07:00 +23°C° 0 mm 1 mps 752 mmHg 77%
    08:00 +25°C° 0 mm 1 mps 752 mmHg 71%
    09:00 +27°C° 0 mm 2 mps 752 mmHg 65%
    10:00 +28°C° 0 mm 2 mps 752 mmHg 59%
    11:00 +29°C° 0 mm 2 mps 751 mmHg 56%
    12:00 +30°C° 0 mm 2 mps 751 mmHg 53%
    13:00 +31°C° 0 mm 3 mps 751 mmHg 51%
    14:00 +31°C° 0 mm 3 mps 751 mmHg 51%
    15:00 +31°C° 0 mm 3 mps 750 mmHg 52%
    16:00 +31°C° 0 mm 3 mps 750 mmHg 52%
    17:00 +30°C° 0.1 mm 3 mps 750 mmHg 57%
    18:00 +29°C° 0.1 mm 2 mps 750 mmHg 63%
    19:00 +28°C° 0.1 mm 2 mps 750 mmHg 68%
    20:00 +26°C° 0.1 mm 2 mps 750 mmHg 71%
    21:00 +25°C° 0.1 mm 1 mps 750 mmHg 73%
    22:00 +24°C° 0.1 mm 1 mps 750 mmHg 76%
    23:00 +23°C° 0.3 mm 1 mps 750 mmHg 79%

    29 May, Tuesday

    Time Temperature Precipitation Wind Pressure Humidity
    00:00 +23°C° 0.3 mm 1 mps 750 mmHg 81%
    01:00 +22°C° 0.3 mm 1 mps 750 mmHg 84%
    02:00 +22°C° 0.3 mm 1 mps 750 mmHg 85%
    03:00 +22°C° 0.3 mm 1 mps 750 mmHg 87%
    04:00 +21°C° 0.3 mm 1 mps 750 mmHg 88%
    05:00 +22°C° 0.2 mm 1 mps 750 mmHg 87%
    06:00 +21°C° 0.2 mm 0 mps 750 mmHg 86%
    07:00 +21°C° 0.2 mm 0 mps 749 mmHg 84%
    08:00 +25°C° 0.6 mm 1 mps 749 mmHg 79%
    09:00 +26°C° 0.6 mm 1 mps 749 mmHg 73%
    10:00 +28°C° 0.6 mm 1 mps 749 mmHg 68%
    11:00 +29°C° 0.7 mm 1 mps 749 mmHg 65%
    12:00 +29°C° 0.7 mm 1 mps 748 mmHg 62%
    13:00 +30°C° 0.7 mm 1 mps 748 mmHg 59%
    14:00 +30°C° 0.4 mm 1 mps 747 mmHg 58%
    15:00 +30°C° 0.4 mm 1 mps 747 mmHg 58%
    16:00 +30°C° 0.4 mm 1 mps 747 mmHg 57%
    17:00 +29°C° 0.9 mm 1 mps 747 mmHg 64%
    18:00 +27°C° 0.9 mm 1 mps 747 mmHg 71%
    19:00 +26°C° 0.9 mm 2 mps 747 mmHg 77%
    20:00 +25°C° 0.6 mm 2 mps 747 mmHg 80%
    21:00 +24°C° 0.6 mm 2 mps 747 mmHg 83%
    22:00 +21°C° 0.6 mm 2 mps 747 mmHg 86%
    23:00 +21°C° 0.2 mm 2 mps 747 mmHg 87%

    30 May, Wednesday

    Time Temperature Precipitation Wind Pressure Humidity
    00:00 +20°C° 0.2 mm 2 mps 747 mmHg 88%
    01:00 +20°C° 0.2 mm 2 mps 747 mmHg 90%
    02:00 +19°C° 0 mm 2 mps 747 mmHg 90%
    03:00 +19°C° 0 mm 2 mps 747 mmHg 91%
    04:00 +18°C° 0 mm 2 mps 747 mmHg 92%
    05:00 +19°C° 0 mm 2 mps 747 mmHg 90%
    06:00 +20°C° 0 mm 2 mps 747 mmHg 88%
    07:00 +21°C° 0 mm 2 mps 747 mmHg 86%
    08:00 +23°C° 0 mm 2 mps 747 mmHg 78%
    09:00 +25°C° 0 mm 2 mps 747 mmHg 71%
    10:00 +26°C° 0 mm 3 mps 747 mmHg 63%
    11:00 +27°C° 0 mm 2 mps 747 mmHg 59%
    12:00 +28°C° 0 mm 2 mps 746 mmHg 55%
    13:00 +29°C° 0 mm 2 mps 746 mmHg 51%
    14:00 +30°C° 0 mm 2 mps 746 mmHg 51%
    15:00 +30°C° 0 mm 2 mps 746 mmHg 51%
    16:00 +30°C° 0 mm 2 mps 746 mmHg 51%
    17:00 +29°C° 0.2 mm 2 mps 746 mmHg 57%
    18:00 +28°C° 0.2 mm 1 mps 746 mmHg 63%
    19:00 +27°C° 0.2 mm 1 mps 746 mmHg 69%
    20:00 +25°C° 0.1 mm 1 mps 746 mmHg 71%
    21:00 +24°C° 0.1 mm 1 mps 747 mmHg 73%
    22:00 +23°C° 0.1 mm 1 mps 747 mmHg 76%
    23:00 +23°C° 0 mm 1 mps 747 mmHg 79%

    31 May, Thursday

    Time Temperature Precipitation Wind Pressure Humidity
    00:00 +22°C° 0 mm 1 mps 747 mmHg 82%
    01:00 +21°C° 0 mm 1 mps 747 mmHg 85%
    02:00 +21°C° 0.3 mm 1 mps 747 mmHg 86%
    03:00 +21°C° 0.3 mm 1 mps 747 mmHg 87%
    04:00 +18°C° 0.3 mm 0 mps 748 mmHg 89%
    05:00 +21°C° 0.6 mm 1 mps 748 mmHg 88%
    06:00 +22°C° 0.6 mm 1 mps 748 mmHg 86%
    07:00 +23°C° 0.6 mm 1 mps 748 mmHg 85%
    08:00 +24°C° 0.8 mm 1 mps 748 mmHg 82%
    09:00 +25°C° 0.8 mm 1 mps 748 mmHg 78%
    10:00 +26°C° 0.8 mm 1 mps 748 mmHg 75%
    11:00 +26°C° 1 mm 1 mps 748 mmHg 74%
    12:00 +26°C° 1 mm 1 mps 748 mmHg 73%
    13:00 +26°C° 1 mm 1 mps 748 mmHg 72%
    14:00 +26°C° 0.3 mm 1 mps 748 mmHg 72%
    15:00 +26°C° 0.3 mm 1 mps 748 mmHg 72%
    16:00 +26°C° 0.3 mm 2 mps 748 mmHg 72%
    17:00 +26°C° 0.2 mm 2 mps 748 mmHg 74%
    18:00 +25°C° 0.2 mm 2 mps 748 mmHg 77%
    19:00 +24°C° 0.2 mm 2 mps 748 mmHg 79%
    20:00 +23°C° 0.6 mm 1 mps 748 mmHg 81%
    21:00 +22°C° 0.6 mm 1 mps 748 mmHg 84%
    22:00 +21°C° 0.6 mm 1 mps 748 mmHg 86%
    23:00 +21°C° 0.4 mm 1 mps 748 mmHg 87%
    Show more